Retour au catalogue

CZ-6A R/B

ActifPO
NORAD 62237·ROCKET BODY·🇨🇳 China

Lancé Dec 5, 2024 depuis Taiyuan Satellite Launch Center

Loading…

Prochains Passages (prochaines 24 heures)

TLE

FraisSource: Space-Track

Époque: Sep 14, 2026, 14:25 UTC

1 62237U 24232A   26257.60117285  .00000211  00000-0  44764-4 0  9998
2 62237  89.0435   4.8984 0100082  58.2676 302.8238 14.51922272142399

Suivez CZ-6A R/B en temps réel avec AllMySat

Download on the App Store